Location: Berlin
(52.5200°N, 13.4050°E)
Time: 15:26:15
(UTC+01:00)

ISS - Visible Passes

Search period start: 16 March 2026 00:00
Search period end: 26 March 2026 00:00
Orbit: 417 x 426 km, 51.6° (Epoch: 16 March)

Date Brightness Start Highest point End Pass type
(mag) Time Alt. Az. Time Alt. Az. Time Alt. Az.
16 Mar -3.1 19:03:29 10° SW 19:06:44 41° SSE 19:09:27 13° E visible
16 Mar -2.7 20:40:01 10° W 20:42:27 44° WSW 20:42:27 44° WSW visible
17 Mar -3.8 19:53:13 10° WSW 19:56:37 73° S 19:57:38 41° E visible
17 Mar -0.8 21:30:01 10° W 21:30:39 14° W 21:30:39 14° W visible
18 Mar -3.6 19:06:26 10° WSW 19:09:49 65° SSE 19:12:45 13° E visible
18 Mar -2.9 20:43:12 10° W 20:45:46 47° WSW 20:45:46 47° WSW visible
19 Mar -3.8 19:56:22 10° W 19:59:47 78° S 20:00:49 41° ESE visible
19 Mar -0.8 21:33:13 10° W 21:33:50 14° W 21:33:50 14° W visible
20 Mar -3.7 19:09:30 10° W 19:12:55 78° S 19:15:51 13° E visible
20 Mar -2.7 20:46:20 10° W 20:48:52 41° WSW 20:48:52 41° WSW visible
21 Mar -3.6 19:59:27 10° W 20:02:50 64° SSW 20:03:52 39° SE visible
21 Mar -0.7 21:36:33 10° W 21:36:52 12° W 21:36:52 12° W visible
22 Mar -3.7 19:12:34 10° W 19:15:58 72° S 19:18:52 13° ESE visible
22 Mar -2.2 20:49:30 10° W 20:51:52 28° SW 20:51:52 28° SW visible
23 Mar -2.9 20:02:30 10° W 20:05:45 41° SSW 20:06:53 29° SSE visible
24 Mar -3.2 19:15:33 10° W 19:18:53 51° SSW 19:21:54 12° ESE visible
24 Mar -1.4 20:52:58 10° WSW 20:54:54 16° SW 20:54:54 16° SW visible
25 Mar -1.9 20:05:43 10° W 20:08:27 23° SSW 20:09:57 17° S visible
